OPTUS-X (ADS-01)

Last updated on Tue Sep 22 2026 00:03:16 GMT+0000 (Coordinated Universal Time)

1 62006U 24212A 26264.51678582 -.00000147 00000+0 00000+0 0 9998 2 62006 0.0267 259.3988 0002642 276.9579 166.5010 1.00271808 6725
UTC large
Height (km)
Speed (km/s)
/
Latitude / Longitude
Inclination (degrees)
Orbital Period (minutes)
Azimuth
Elevation
Range (km)
Doppler Factor

Next 0 passes for location: London (51.5072 / 0.1276)

No passes found over London.
OPTUS-X (ADS-01)